User: anonymous   Login
Location: Caltech
(34.1382°N, 118.1253°W)
Time: 11:20:49
(UTC-07:00)
Language:

deb Explorer IX - Orbit

View from above orbital plane
View from above orbital plane
View from above satellite
View from above satellite

Ground track
Ground track

The orbit data is extracted from the following two-line orbital elements,

1 00085U 61004C   18114.15947373  .00002108  00000-0  49352-3 0  9995
2 00085  38.7748  60.4665 0388976 315.8811  41.1510 14.18394397819444
Epoch (UTC): 24 April 2018 03:49:38
Eccentricity: 0.0388976
inclination: 38.7748°
perigee height: 550 km
apogee height: 1111 km
right ascension of ascending node: 60.4665°
argument of perigee: 315.8811°
revolutions per day: 14.18394397
mean anomaly at epoch: 41.1510°
orbit number at epoch: 81944

The dashed part of the orbit path shows where the satellite is in the earth's shadow,  

DLR